Location: Bintulu
(3.1667°N, 113.0333°E)
Time: 10:37:35
(UTC+00:00)

SL-24 R/B - RUBIN 2 - Pass Details

Date: 13 December 2025
Orbit: 601 x 986 km, 64.6° (Epoch: 18 January)

Event Time Altitude Azimuth Distance (km) Brightness Sun altitude
Exits shadow 21:26:37 17° 326° (NW) 1,622 5.2 -14.0°
Maximum altitude 21:30:05 62° 248° (WSW) 749 3.7 -13.3°
Drops below altitude 10° 21:35:00 10° 167° (SSE) 2,205 6.9 -12.1°
Sets 21:37:31 0° 164° (SSE) 3,192 7.8 -11.5°
